Location: Asheville, NC
(35.6000°N, 82.5500°W)
Time: 08:18:56
(UTC-04:00)

Iridium 12 - Visible Passes

Search period start: 18 July 2018 00:00
Search period end: 28 July 2018 00:00
Orbit: 761 x 765 km, 86.4° (Epoch: 17 July)

Date Brightness Start Highest point End Pass type
(mag) Time Alt. Az. Time Alt. Az. Time Alt. Az.
18 Jul 6.4 05:24:27 10° N 05:29:27 51° E 05:34:26 10° SSE visible
19 Jul 7.7 04:47:20 10° NNE 04:51:29 24° E 04:55:34 10° SE visible
20 Jul 8.4 04:11:53 10° ENE 04:13:18 11° ENE 04:14:44 10° E visible
20 Jul 5.5 05:49:05 10° N 05:54:11 68° W 05:59:16 10° S visible
21 Jul 6.2 05:11:20 10° N 05:16:23 56° E 05:21:24 10° SSE visible
22 Jul 7.5 04:34:08 10° NNE 04:38:25 26° E 04:42:41 10° SE visible
23 Jul 8.3 03:58:14 10° NE 04:00:16 12° ENE 04:02:19 10° E visible
23 Jul 5.5 05:36:02 10° N 05:41:06 62° W 05:46:09 10° SSW visible
24 Jul 6.0 04:58:13 10° N 05:03:19 61° E 05:08:22 10° SSE visible
25 Jul 7.3 04:20:57 10° NNE 04:25:22 28° E 04:29:45 10° SE visible
25 Jul 6.5 06:01:24 10° NNW 06:05:37 26° W 06:09:50 10° SW visible
26 Jul 8.2 03:44:46 10° NE 03:47:15 13° ENE 03:49:43 10° ESE visible
26 Jul 5.6 05:22:58 10° N 05:28:00 56° W 05:33:00 10° SSW visible
27 Jul 5.8 04:45:07 10° N 04:50:14 67° E 04:55:20 10° S visible
